Location: Cran-Gévrier
(45.9039°N, 6.1012°E)
Time: 11:24:52
(UTC+00:00)

Cosmos-2242 - Pass Details

Date: 09 February 2023
Orbit: 587 x 611 km, 82.5° (Epoch: 01 April)

Event Time Altitude Azimuth Distance (km) Brightness Sun altitude
Rises 18:16:19 0° 355° (N) 2,829 6.4 -15.0°
Reaches altitude 10° 18:18:35 10° 1° (N) 1,924 5.5 -15.4°
Maximum altitude 18:22:43 50° 78° (ENE) 760 3.1 -16.1°
Drops below altitude 10° 18:26:50 10° 154° (SSE) 1,915 5.4 -16.8°
Sets 18:29:05 0° 159° (SSE) 2,814 6.3 -17.2°
